[[{"header":{"parameterUnit":"m.s-1","parameterCategory":1,"la1":30.2991,"la2":30.254,"lo1":-89.0895,"lo2":-89.0444,"dy":0.0017,"dx":0.0017,"nx":28,"ny":28,"refTime":"2025-09-02T21:00:00:Z","depth":0,"parameterNumber":2,"parameterNumberName":"U-component_of_WINDS"},"data":[0,0,0,0,0,0,0,0,0,0,0,0,0,0,0,0,0,0,0,0,0,0,0,0,0,0,0,0,0,0,0,0,0,0,0,0,0,0,0,0,0,0,0,0,0,0,0,0,0,0,0,0,0,0,0,0,0,0,-0.8868,-0.8869,0,-0.8895,-0.8895,-0.8895,-0.8863,-0.8862,-0.8861,-0.886,-0.8887,-0.8889,-0.8891,0,0,0,0,0,0,0,0,0,0,0,0,0,-0.8791,-0.8792,-0.8868,-0.8869,-0.8869,-0.8894,-0.8895,-0.8895,-0.8863,-0.8862,-0.8861,-0.8859,-0.8887,-0.8889,-0.8891,0,0,0,0,0,0,0,0,0,0,0,0,0,-0.8822,-0.8793,-0.8868,-0.8856,-0.8855,-0.8894,-0.8895,-0.8895,-0.8864,-0.8862,-0.886,-0.8859,-0.8886,-0.8889,-0.8891,-0.8944,0,0,-0.89,-0.8901,0,0,0,0,0,0,0,0,-0.882,-0.8824,-0.8858,-0.8857,-0.8856,-0.8874,-0.8878,-0.8912,-0.8864,-0.8861,-0.886,-0.8858,-0.8884,-0.8887,-0.8896,-0.8945,-0.8946,-0.89,-0.8902,-0.8903,-0.8904,0,0,0,0,0,0,0,-0.8818,-0.8823,-0.8879,-0.8858,-0.8857,-0.8849,-0.8852,-0.8884,-0.8882,-0.8861,-0.8858,-0.8862,-0.8884,-0.8893,-0.8896,-0.8947,-0.89,-0.8903,-0.8904,-0.8905,-0.904,-0.9042,0,0,0,0,0,0,-0.8817,-0.8822,-0.8878,-0.8879,-0.8833,-0.8852,-0.8855,-0.887,-0.8882,-0.8882,-0.8863,-0.886,-0.889,-0.8893,-0.8897,-0.896,-0.8903,-0.8906,-0.8907,-0.9038,-0.9041,-0.9043,0,0,0,0,0,0,-0.8815,-0.8822,-0.8877,-0.885,-0.8856,-0.8855,-0.8873,-0.8871,-0.8881,-0.8884,-0.8883,-0.8874,-0.8888,-0.8893,-0.8932,-0.896,-0.8907,-0.8909,-0.9036,-0.9039,-0.9042,-0.9085,0,0,0,0,0,0,-0.8813,-0.8822,-0.8842,-0.8851,-0.8858,-0.8912,-0.8874,-0.8873,-0.8886,-0.8882,-0.8893,-0.8893,-0.8887,-0.8929,-0.8935,-0.8963,-0.8911,-0.9034,-0.9037,-0.9041,-0.9081,-0.9089,-0.9096,0,0,0,0,0,-0.8811,-0.8853,-0.8843,-0.885,-0.8883,-0.8913,-0.8918,-0.8909,-0.8888,-0.8908,-0.891,-0.8893,-0.8956,-0.8933,-0.894,-0.8969,-0.9032,-0.9036,-0.904,-0.9078,-0.9087,-0.9095,0,0,0,0,0,0,-0.8849,-0.8854,-0.8843,-0.889,-0.8901,-0.8908,-0.8933,-0.892,-0.8938,-0.8934,-0.8923,-0.8926,-0.8967,-0.8972,-0.8946,-0.902,-0.899,-0.8996,-0.9016,-0.9025,-0.9032,-0.9031,-0.8914,0,0,0,0,0,-0.8862,-0.8886,-0.889,-0.8931,-0.8937,-0.8934,-0.8947,-0.894,-0.8951,-0.8956,-0.8961,-0.8973,-0.8995,-0.901,-0.9031,-0.9081,-0.9083,-0.9104,-0.9112,-0.9118,-0.9124,-0.915,-0.916,-0.9057,-0.9057,-0.9057,0,0,-0.8891,-0.8897,-0.8913,-0.8939,-0.8947,-0.8972,-0.8939,-0.8967,-0.8986,-0.8961,-0.8998,-0.9002,-0.9014,-0.9059,-0.9079,-0.9064,-0.9152,-0.9123,-0.9128,-0.9131,-0.9156,-0.9166,-0.9174,-0.906,-0.9059,-0.9059,0,0,-0.8956,-0.8963,-0.8998,-0.9007,-0.9019,-0.9017,-0.9025,-0.9033,-0.9035,-0.9072,-0.9053,-0.9075,-0.9114,-0.9124,-0.9134,-0.9202,-0.9188,-0.9209,-0.9248,-0.9274,-0.9283,-0.929,-0.9315,-0.9324,-0.9215,-0.9215,-0.9215,0,-0.8991,-0.9028,-0.9018,-0.9047,-0.9059,-0.9037,-0.9072,-0.9081,-0.91,-0.9108,-0.9091,-0.9139,-0.9146,-0.9193,-0.9209,-0.9218,-0.9227,-0.9209,-0.9282,-0.9289,-0.9296,-0.932,-0.9329,-0.9217,-0.9217,-0.9217,-0.9217,0,-0.907,-0.9096,-0.9123,-0.9141,-0.9156,-0.9188,-0.9182,-0.9198,-0.9189,-0.9189,-0.9227,-0.9234,-0.9256,-0.9266,-0.9258,-0.9312,-0.9302,-0.9284,-0.9254,-0.9308,-0.9331,-0.9339,-0.9221,-0.922,-0.9219,-0.9219,0,0,-0.9161,-0.9173,-0.9183,-0.9191,-0.9202,-0.9223,-0.9254,-0.9274,-0.9289,-0.9302,-0.9328,-0.9361,-0.9344,-0.9355,-0.9347,-0.937,-0.9424,-0.9349,-0.9349,-0.9363,-0.9485,-0.95,-0.951,-0.9414,-0.9416,-0.9417,-0.9484,0,-0.9228,-0.9282,-0.9272,-0.9325,-0.9349,-0.9327,-0.9354,-0.9365,-0.9364,-0.9385,-0.9385,-0.9408,-0.9384,-0.939,-0.9412,-0.9413,-0.9449,-0.9408,-0.9439,-0.944,-0.9438,-0.9522,-0.9537,-0.96,-0.9493,-0.9494,-0.9495,0,-0.9312,-0.9328,-0.9383,-0.9391,-0.9401,-0.9425,-0.9443,-0.9463,-0.9474,-0.9472,-0.9485,-0.9472,-0.9503,-0.9472,-0.9514,-0.9487,-0.9499,-0.9501,-0.9503,-0.9507,-0.9472,-0.9529,-0.962,-0.963,-0.9508,-0.9507,-0.9506,0,-0.9374,-0.941,-0.9447,-0.9454,-0.9464,-0.9482,-0.9486,-0.9495,-0.9508,-0.9524,-0.9533,-0.9552,-0.9563,-0.9578,-0.9571,-0.9549,-0.9616,-0.9583,-0.9616,-0.9616,-0.9632,-0.9631,-0.9728,-0.9638,-0.9637,-0.9637,-0.9637,0,-0.945,-0.9485,-0.9475,-0.9498,-0.9536,-0.9525,-0.9563,-0.9565,-0.9573,-0.9596,-0.9578,-0.96,-0.959,-0.9611,-0.9606,-0.9642,-0.9647,-0.9647,-0.9645,-0.9649,-0.965,-0.9658,-0.9654,-0.964,-0.9639,-0.9639,-0.9638,0,-0.9526,-0.9521,-0.9561,-0.9566,-0.9568,-0.9596,-0.9601,-0.9622,-0.962,-0.965,-0.9656,-0.9653,-0.9677,-0.9672,-0.9698,-0.9695,-0.9741,-0.9733,-0.9738,-0.9736,-0.9769,-0.9766,-0.9876,-0.9889,-0.9789,-0.979,-0.9791,0,-0.9576,-0.9602,-0.961,-0.9624,-0.963,-0.9653,-0.9666,-0.9655,-0.967,-0.9684,-0.9704,-0.9726,-0.9744,-0.9783,-0.9784,-0.9804,-0.9797,-0.9834,-0.98,-0.9803,-0.9799,-0.9798,-0.98,-0.9841,-0.9842,-0.9843,-0.9844,0,-0.9663,-0.9659,-0.9679,-0.9698,-0.9714,-0.9728,-0.974,-0.9753,-0.9743,-0.976,-0.9785,-0.9798,-0.9825,-0.9848,-0.9866,-0.9871,-0.9856,-0.9854,-0.9863,-0.9868,-0.9869,-0.987,-0.9757,-0.9852,-0.9851,-0.9851,-0.985,-0.985,-0.9728,-0.975,-0.976,-0.9782,-0.979,-0.9802,-0.9822,-0.9823,-0.9843,-0.9864,-0.9856,-0.9884,-0.9893,-0.9917,-0.9924,-0.9945,-0.9932,-0.9944,-0.9947,-0.9951,-0.9955,-0.9865,-0.9949,-0.9948,-0.9948,-0.9948,-0.9948,0,-0.9816,-0.982,-0.9841,-0.9859,-0.9876,-0.986,-0.9873,-0.9889,-0.9913,-0.9923,-0.9941,-0.9969,-0.999,-0.9992,-1.0012,-1.0029,-1.0023,-1.0035,-1.0035,-1.0036,-0.9966,-0.9957,-1.004,-1.004,-1.004,-1.004,-1.004,-1.004,-0.9864,-0.9901,-0.9898,-0.9938,-0.9942,-0.9969,-0.9978,-0.9989,-0.9997,-1.0029,-1.0047,-1.0047,-1.0054,-1.0075,-1.0094,-1.0094,-1.0102,-1.0117,-1.0115,-1.005,-1.0041,-1.0032,-1.0024,-1.0119,-1.0119,-1.0183,-1.0183,-1.0184]},{"header":{"parameterUnit":"m.s-1","parameterCategory":1,"la1":30.2991,"la2":30.254,"lo1":-89.0895,"lo2":-89.0444,"dy":0.0017,"dx":0.0017,"nx":28,"ny":28,"refTime":"2025-09-02T21:00:00:Z","depth":0,"parameterNumber":3,"parameterNumberName":"V-component_of_WINDS"},"data":[0,0,0,0,0,0,0,0,0,0,0,0,0,0,0,0,0,0,0,0,0,0,0,0,0,0,0,0,0,0,0,0,0,0,0,0,0,0,0,0,0,0,0,0,0,0,0,0,0,0,0,0,0,0,0,0,0,0,-1.3059,-1.3059,0,-1.3082,-1.3083,-1.3083,-1.3061,-1.306,-1.3059,-1.3058,-1.3081,-1.3082,-1.3084,0,0,0,0,0,0,0,0,0,0,0,0,0,-1.2993,-1.2995,-1.3059,-1.3059,-1.3059,-1.3082,-1.3083,-1.3083,-1.3061,-1.306,-1.3059,-1.3058,-1.3081,-1.3082,-1.3084,0,0,0,0,0,0,0,0,0,0,0,0,0,-1.302,-1.2995,-1.3058,-1.3051,-1.3051,-1.3082,-1.3083,-1.3083,-1.3061,-1.306,-1.3059,-1.3057,-1.308,-1.3082,-1.3084,-1.3124,0,0,-1.3091,-1.3092,0,0,0,0,0,0,0,0,-1.3018,-1.3022,-1.3052,-1.3052,-1.3051,-1.3067,-1.3068,-1.3097,-1.3062,-1.3057,-1.3058,-1.3057,-1.3077,-1.308,-1.3087,-1.3125,-1.3126,-1.3091,-1.3092,-1.3093,-1.3094,0,0,0,0,0,0,0,-1.3016,-1.3021,-1.3068,-1.3052,-1.3052,-1.3046,-1.3049,-1.3073,-1.3074,-1.3058,-1.3056,-1.3059,-1.3077,-1.3085,-1.3087,-1.3126,-1.3091,-1.3093,-1.3094,-1.3095,-1.3198,-1.3199,0,0,0,0,0,0,-1.3016,-1.302,-1.3067,-1.3069,-1.3031,-1.3048,-1.3051,-1.3063,-1.3074,-1.3074,-1.306,-1.3058,-1.3082,-1.3085,-1.3088,-1.3136,-1.3093,-1.3095,-1.3096,-1.3197,-1.3198,-1.32,0,0,0,0,0,0,-1.3014,-1.302,-1.3066,-1.3044,-1.3049,-1.3051,-1.3065,-1.3065,-1.3073,-1.3076,-1.3076,-1.3068,-1.3081,-1.3085,-1.3115,-1.3136,-1.3096,-1.3098,-1.3195,-1.3197,-1.3199,-1.3231,0,0,0,0,0,0,-1.3012,-1.302,-1.3035,-1.3044,-1.305,-1.3093,-1.3066,-1.3066,-1.3077,-1.3074,-1.3084,-1.3084,-1.308,-1.3112,-1.3117,-1.3138,-1.31,-1.3193,-1.3196,-1.3198,-1.3228,-1.3234,-1.3239,0,0,0,0,0,-1.301,-1.3042,-1.3036,-1.3042,-1.307,-1.3095,-1.3098,-1.3094,-1.3078,-1.3094,-1.3096,-1.3084,-1.3133,-1.3115,-1.3121,-1.3143,-1.3192,-1.3195,-1.3198,-1.3225,-1.3233,-1.3239,0,0,0,0,0,0,-1.3034,-1.3043,-1.3036,-1.3072,-1.3083,-1.3091,-1.311,-1.3101,-1.3116,-1.3113,-1.3106,-1.3109,-1.3141,-1.3145,-1.3125,-1.3182,-1.316,-1.3164,-1.3178,-1.3185,-1.3191,-1.3189,-1.3101,0,0,0,0,0,-1.3044,-1.3064,-1.3071,-1.3102,-1.3108,-1.3108,-1.3119,-1.3115,-1.3125,-1.3129,-1.3134,-1.3144,-1.3162,-1.3174,-1.319,-1.3228,-1.323,-1.3246,-1.3251,-1.3256,-1.326,-1.3281,-1.3289,-1.3211,-1.3211,-1.3211,0,0,-1.3064,-1.3071,-1.3084,-1.3107,-1.3115,-1.3136,-1.3112,-1.3135,-1.315,-1.3132,-1.3162,-1.3165,-1.3176,-1.3211,-1.3226,-1.3215,-1.3282,-1.326,-1.3264,-1.3265,-1.3285,-1.3293,-1.3299,-1.3213,-1.3213,-1.3212,0,0,-1.3111,-1.3119,-1.3146,-1.3155,-1.3167,-1.3167,-1.3174,-1.3183,-1.3185,-1.3215,-1.3202,-1.322,-1.3251,-1.3259,-1.3268,-1.3319,-1.3309,-1.3325,-1.3353,-1.3374,-1.338,-1.3386,-1.3405,-1.3412,-1.3329,-1.3329,-1.3329,0,-1.3135,-1.3166,-1.3161,-1.3185,-1.3196,-1.3182,-1.3209,-1.3218,-1.3234,-1.3242,-1.3229,-1.3268,-1.3274,-1.3311,-1.3324,-1.3331,-1.3338,-1.3324,-1.338,-1.3385,-1.339,-1.3408,-1.3415,-1.3331,-1.3331,-1.333,-1.333,0,-1.3194,-1.3216,-1.3236,-1.3254,-1.3267,-1.3293,-1.3292,-1.3305,-1.33,-1.3301,-1.3332,-1.3339,-1.3357,-1.3365,-1.336,-1.3401,-1.3394,-1.3381,-1.3358,-1.34,-1.3417,-1.3423,-1.3334,-1.3333,-1.3332,-1.3332,0,0,-1.3257,-1.3273,-1.328,-1.3289,-1.3302,-1.3318,-1.3343,-1.3362,-1.3374,-1.3386,-1.3407,-1.3434,-1.3422,-1.3431,-1.3427,-1.3445,-1.3486,-1.3429,-1.343,-1.344,-1.3533,-1.3544,-1.3552,-1.3479,-1.348,-1.3481,-1.3533,0,-1.3305,-1.335,-1.3347,-1.3388,-1.3409,-1.3396,-1.3418,-1.3428,-1.3431,-1.3448,-1.345,-1.3469,-1.3452,-1.3458,-1.3475,-1.3478,-1.3505,-1.3474,-1.3499,-1.35,-1.3497,-1.3561,-1.3571,-1.3619,-1.3539,-1.354,-1.3541,0,-1.3367,-1.3383,-1.3427,-1.3438,-1.3447,-1.3467,-1.3484,-1.35,-1.3512,-1.3512,-1.3523,-1.3516,-1.3541,-1.3518,-1.3553,-1.3532,-1.3542,-1.3545,-1.3547,-1.3549,-1.3523,-1.3565,-1.3634,-1.3642,-1.3551,-1.355,-1.355,0,-1.341,-1.3442,-1.3473,-1.348,-1.3493,-1.3508,-1.3514,-1.3524,-1.3535,-1.355,-1.3558,-1.3575,-1.3585,-1.3598,-1.3595,-1.3579,-1.3631,-1.3608,-1.3632,-1.3633,-1.3644,-1.3644,-1.3717,-1.365,-1.365,-1.365,-1.3649,0,-1.3464,-1.3492,-1.3492,-1.3511,-1.3542,-1.3538,-1.3568,-1.3572,-1.3582,-1.3601,-1.3591,-1.3609,-1.3605,-1.3623,-1.3621,-1.3651,-1.3655,-1.3656,-1.3655,-1.3657,-1.3657,-1.3664,-1.3661,-1.3651,-1.3651,-1.3651,-1.365,0,-1.3517,-1.3518,-1.3551,-1.3561,-1.3564,-1.3587,-1.3595,-1.3613,-1.3615,-1.364,-1.3645,-1.3647,-1.3668,-1.3667,-1.3691,-1.3689,-1.3726,-1.3721,-1.3723,-1.3722,-1.3747,-1.3745,-1.3827,-1.3838,-1.3764,-1.3764,-1.3765,0,-1.3552,-1.3573,-1.3586,-1.3599,-1.3606,-1.3627,-1.3639,-1.3636,-1.3649,-1.3664,-1.368,-1.37,-1.3717,-1.3751,-1.3754,-1.3772,-1.3768,-1.3795,-1.377,-1.3772,-1.3769,-1.3768,-1.377,-1.38,-1.3801,-1.3802,-1.3803,0,-1.3614,-1.3614,-1.3632,-1.3651,-1.3666,-1.3681,-1.3694,-1.3705,-1.3703,-1.3718,-1.374,-1.3753,-1.3777,-1.3798,-1.3815,-1.3821,-1.3812,-1.381,-1.3817,-1.382,-1.382,-1.3821,-1.3737,-1.3809,-1.3808,-1.3808,-1.3807,-1.3807,-1.3659,-1.3678,-1.369,-1.3711,-1.3721,-1.3734,-1.3752,-1.3756,-1.3775,-1.3795,-1.3792,-1.3817,-1.3828,-1.3851,-1.3858,-1.3877,-1.3867,-1.3877,-1.3879,-1.3882,-1.3885,-1.3817,-1.388,-1.388,-1.388,-1.388,-1.3879,0,-1.3722,-1.3729,-1.3749,-1.3768,-1.3785,-1.3775,-1.379,-1.3804,-1.3826,-1.3838,-1.3854,-1.388,-1.39,-1.3905,-1.3924,-1.3939,-1.3935,-1.3944,-1.3943,-1.3945,-1.3893,-1.3885,-1.3947,-1.3947,-1.3947,-1.3947,-1.3947,-1.3946,-1.3756,-1.3787,-1.3789,-1.3825,-1.3832,-1.3857,-1.3866,-1.3878,-1.3888,-1.3917,-1.3934,-1.3937,-1.3947,-1.3967,-1.3984,-1.3985,-1.3993,-1.4004,-1.4003,-1.3955,-1.3948,-1.3942,-1.3935,-1.4006,-1.4006,-1.4054,-1.4054,-1.4055]}]]